Weather History for Shawnee, OK

Change the Weather History Date:

Wednesday, February 15, 2012

  Actual Average (KTIK) Record (KTIK)
Temperature  
Mean Temperature 56 °F -  
Max Temperature 69 °F 52 °F 77 °F (2000)
Min Temperature 44 °F 33 °F 11 °F (2007)
Degree Days  
Heating Degree Days 8    
Growing Degree Days 6 (Base 50)    
Moisture  
Dew Point 45 °F    
Average Humidity 80    
Maximum Humidity 100    
Minimum Humidity 28    
Precipitation  
Precipitation 0.00 in - - ()
Sea Level Pressure  
Sea Level Pressure 29.89 in    
Wind  
Wind Speed 9 mph (SSW)    
Max Wind Speed 18 mph    
Max Gust Speed 25 mph    
Visibility 4 miles    
Events Fog , Rain    
Averages and records for this station are not official NWS values.
T = Trace of Precipitation, MM = Missing Value Source: NWS Daily Summary

Daily Weather History Graph

Daily Weather History Graph

Search for Another Location

Airport:

Trip Planner

Search our weather history database for the weather conditions in past years. The results will help you decide how hot, cold, wet, or windy it might be!

Date:

Astronomy

Feb. 15, 2012 Rise Set
Actual Time 7:14 AM CST 6:09 PM CST
Civil Twilight 6:48 AM CST 6:35 PM CST
Nautical Twilight 6:18 AM CST 7:05 PM CST
Astronomical Twilight 5:49 AM CST 7:35 PM CST
Moon 2:02 AM CST (2/15) 12:12 PM CST (2/15)
Length of Visible Light 11h 46m
Length of Day
10h 54m
Last Quarter, 38% of the Moon is Illuminated
Feb 15
Last Quarter
Feb 21
New
Feb 29
First Quarter
Mar 8
Full
Mar 14
Last Quarter

Hourly Weather History & Observations

Time (CST) Temp. Windchill Dew Point Humidity Pressure Visibility Wind Dir Wind Speed Gust Speed Precip Events Conditions
12:15 AM 44.6 °F 40.2 °F 42.8 °F 93% 29.90 in 1.0 mi SSE 8.1 mph - N/A   Overcast
12:35 AM 44.6 °F 39.2 °F 42.8 °F 93% 29.89 in 0.8 mi SSE 10.4 mph - N/A   Overcast
12:55 AM 44.6 °F 42.2 °F 42.8 °F 93% 29.90 in 0.8 mi South 4.6 mph - N/A   Overcast
1:15 AM 44.6 °F 43.1 °F 42.8 °F 93% 29.92 in 0.8 mi South 3.5 mph - N/A   Overcast
1:35 AM 44.6 °F 42.2 °F 42.8 °F 93% 29.91 in 0.8 mi SSE 4.6 mph - N/A   Overcast
1:55 AM 44.6 °F 39.2 °F 42.8 °F 93% 29.89 in 1.0 mi SSE 10.4 mph - N/A   Overcast
2:15 AM 44.6 °F 40.2 °F 44.6 °F 100% 29.89 in 1.2 mi SSE 8.1 mph - N/A   Overcast
2:35 AM 44.6 °F 39.2 °F 44.6 °F 100% 29.87 in 0.8 mi SSE 10.4 mph - N/A   Overcast
2:55 AM 44.6 °F 38.8 °F 44.6 °F 100% 29.88 in 0.8 mi South 11.5 mph - N/A   Overcast
3:15 AM 44.6 °F 40.2 °F 44.6 °F 100% 29.89 in 0.8 mi South 8.1 mph - N/A   Overcast
3:35 AM 44.6 °F 39.7 °F 44.6 °F 100% 29.88 in 0.8 mi SSE 9.2 mph - N/A   Overcast
3:55 AM 46.4 °F 41.9 °F 46.4 °F 100% 29.87 in 0.8 mi South 9.2 mph 16.1 mph N/A   Overcast
4:15 AM 46.4 °F 41.9 °F 46.4 °F 100% 29.87 in 0.8 mi South 9.2 mph - N/A   Overcast
4:35 AM 46.4 °F 41.1 °F 46.4 °F 100% 29.87 in 1.0 mi South 11.5 mph 16.1 mph N/A   Overcast
4:55 AM 46.4 °F 43.5 °F 46.4 °F 100% 29.89 in 1.0 mi SW 5.8 mph - N/A   Overcast
5:15 AM 46.4 °F 43.5 °F 46.4 °F 100% 29.89 in 1.0 mi South 5.8 mph - N/A Rain Light Rain
5:35 AM 46.4 °F 42.4 °F 46.4 °F 100% 29.89 in 1.0 mi South 8.1 mph - N/A   Overcast
5:55 AM 46.4 °F 41.9 °F 46.4 °F 100% 29.90 in 1.0 mi South 9.2 mph - N/A   Overcast
6:15 AM 50.0 °F - 48.2 °F 94% 29.89 in 0.8 mi South 8.1 mph - N/A   Overcast
6:55 AM 50.0 °F - 48.2 °F 94% 29.91 in 1.0 mi South 8.1 mph - N/A   Drizzle
7:15 AM 50.0 °F - 48.2 °F 94% 29.89 in 1.2 mi South 9.2 mph - N/A   Light Drizzle
7:35 AM 50.0 °F - 48.2 °F 94% 29.89 in 0.5 mi South 4.6 mph - N/A Fog Fog
7:55 AM 50.0 °F - 48.2 °F 94% 29.89 in 0.2 mi SSE 6.9 mph - N/A Fog Fog
8:15 AM 50.0 °F - 48.2 °F 94% 29.89 in 0.2 mi SSE 11.5 mph - N/A Fog Fog
8:35 AM 50.0 °F - 48.2 °F 94% 29.90 in 0.5 mi SSE 10.4 mph - N/A   Light Drizzle
8:55 AM 50.0 °F - 48.2 °F 94% 29.92 in 0.5 mi South 10.4 mph - N/A Fog Fog
9:15 AM 50.0 °F - 48.2 °F 94% 29.90 in 0.8 mi SSE 11.5 mph - N/A   Overcast
9:35 AM 50.0 °F - 50.0 °F 100% 29.90 in 1.2 mi SSE 10.4 mph 17.3 mph N/A   Overcast
9:55 AM 50.0 °F - 50.0 °F 100% 29.90 in 1.5 mi SSE 10.4 mph - N/A   Overcast
10:15 AM 51.8 °F - 51.8 °F 100% 29.89 in 1.5 mi South 10.4 mph - N/A   Overcast
10:35 AM 51.8 °F - 51.8 °F 100% 29.90 in 1.8 mi South 10.4 mph - N/A   Overcast
10:55 AM 53.6 °F - 53.6 °F 100% 29.91 in 2.5 mi SSW 10.4 mph - N/A   Overcast
11:15 AM 53.6 °F - 53.6 °F 100% 29.91 in 3.0 mi SSW 9.2 mph - N/A   Overcast
11:35 AM 53.6 °F - 53.6 °F 100% 29.91 in 3.0 mi SSW 6.9 mph - N/A   Overcast
11:55 AM 55.4 °F - 53.6 °F 94% 29.90 in 4.0 mi SSW 9.2 mph - N/A   Overcast
12:15 PM 55.4 °F - 53.6 °F 94% 29.87 in 5.0 mi South 10.4 mph - N/A   Overcast
12:35 PM 57.2 °F - 53.6 °F 88% 29.85 in 7.0 mi South 10.4 mph 16.1 mph N/A   Overcast
12:55 PM 59.0 °F - 53.6 °F 82% 29.83 in 7.0 mi SSE 13.8 mph 19.6 mph N/A   Overcast
1:15 PM 60.8 °F - 53.6 °F 77% 29.83 in 10.0 mi South 13.8 mph 18.4 mph N/A   Overcast
1:35 PM 62.6 °F - 53.6 °F 72% 29.84 in 10.0 mi SSW 13.8 mph 18.4 mph N/A   Mostly Cloudy
2:15 PM 62.6 °F - 51.8 °F 68% 29.82 in 10.0 mi South 9.2 mph - N/A   Scattered Clouds
2:35 PM 62.6 °F - 51.8 °F 68% 29.82 in 10.0 mi SSW 11.5 mph - N/A   Scattered Clouds
3:15 PM 64.4 °F - 51.8 °F 64% 29.81 in 10.0 mi SSW 11.5 mph 17.3 mph N/A   Scattered Clouds
3:35 PM 69.8 °F - 41.0 °F 35% 29.82 in 10.0 mi WSW 17.3 mph 25.3 mph N/A   Scattered Clouds
3:55 PM 69.8 °F - 39.2 °F 33% 29.83 in 10.0 mi WSW 18.4 mph 25.3 mph N/A   Scattered Clouds
4:15 PM 66.2 °F - 35.6 °F 32% 29.84 in 10.0 mi WNW 15.0 mph 23.0 mph N/A   Clear
4:35 PM 66.2 °F - 33.8 °F 30% 29.85 in 10.0 mi West 16.1 mph 23.0 mph N/A   Clear
5:15 PM 66.2 °F - 32.0 °F 28% 29.87 in 10.0 mi West 10.4 mph - N/A   Clear
5:35 PM 64.4 °F - 32.0 °F 30% 29.89 in 10.0 mi West 9.2 mph - N/A   Clear
5:55 PM 62.6 °F - 32.0 °F 32% 29.89 in 10.0 mi West 9.2 mph - N/A   Clear
6:15 PM 60.8 °F - 32.0 °F 34% 29.91 in 10.0 mi WNW 9.2 mph - N/A   Clear
6:35 PM 57.2 °F - 33.8 °F 41% 29.92 in 10.0 mi NW 4.6 mph - N/A   Clear
6:55 PM 57.2 °F - 33.8 °F 41% 29.94 in 10.0 mi WNW 6.9 mph - N/A   Clear
7:15 PM 55.4 °F - 33.8 °F 44% 29.95 in 10.0 mi WNW 4.6 mph - N/A   Clear
7:35 PM 55.4 °F - 33.8 °F 44% 29.96 in 10.0 mi WNW 5.8 mph - N/A   Clear
7:55 PM 53.6 °F - 35.6 °F 51% 29.97 in 10.0 mi NW 13.8 mph 17.3 mph N/A   Clear
8:15 PM 53.6 °F - 41.0 °F 62% 29.99 in 10.0 mi NNW 10.4 mph 15.0 mph N/A   Clear
8:35 PM 51.8 °F - 42.8 °F 71% 30.00 in 10.0 mi NNW 9.2 mph - N/A   Clear
8:55 PM 50.0 °F - 42.8 °F 76% 30.02 in 10.0 mi NNW 13.8 mph 18.4 mph N/A   Clear
9:15 PM 50.0 °F - 42.8 °F 76% 30.03 in 10.0 mi North 17.3 mph 23.0 mph N/A   Clear
9:35 PM 50.0 °F - 44.6 °F 82% 30.05 in 10.0 mi North 16.1 mph 21.9 mph N/A   Scattered Clouds
9:55 PM 50.0 °F - 44.6 °F 82% 30.06 in 10.0 mi NNW 12.7 mph 17.3 mph N/A   Overcast
10:15 PM 48.2 °F - 44.6 °F 87% 30.08 in 10.0 mi NNW 9.2 mph - N/A   Mostly Cloudy
10:35 PM 44.6 °F 41.4 °F 41.0 °F 87% 30.09 in 7.0 mi NNW 5.8 mph - N/A   Scattered Clouds
10:55 PM 42.8 °F 39.3 °F 41.0 °F 93% 30.09 in 7.0 mi NNW 5.8 mph - N/A   Clear
11:15 PM 42.8 °F 36.6 °F 41.0 °F 93% 30.10 in 7.0 mi NNW 11.5 mph - N/A   Clear
11:35 PM 42.8 °F 36.6 °F 41.0 °F 93% 30.11 in 7.0 mi North 11.5 mph - N/A   Clear
11:55 PM 41.0 °F 35.8 °F 39.2 °F 93% 30.11 in 7.0 mi NNW 8.1 mph - N/A   Clear